Flag for Turkey Weather past 2 weeks in Izmir, Turkey

Now
88 °F

Scattered clouds.


Feels Like: 88 °F
Forecast: 71 / 97 °F
Wind: 6 mph from Northeast

Location: Izmir / Adnan Menderes

Current Time: Jul 24, 2014 at 2:07:17 PM

Latest Report: Jul 24, 2014 at 1:20 PM


Visibility: N/A

Pressure: 29.74 "Hg

Humidity: 40%

Dew point: 61 °F

Location of IzmirLocation

Historic Weather in Izmir — Graph

°F

Izmir temperature yesterday

Maximum temperature yesterday: 90 °F (at 12:50 PM)
Minimum temperature yesterday: 66 °F (at 4:20 AM)
Average temperature yesterday: 78 °F

Past Weeks' High & Low Weather Summary

 TemperatureHumidityPressure
High97 °F (Jul 9, 3:50 PM)94% (Jul 17, 1:50 AM)29.92 "Hg (Jul 17, 1:50 AM)
Low61 °F (Jul 13, 5:20 AM)16% (Jul 13, 4:50 PM)29.68 "Hg (Jul 9, 3:50 PM)
Average80 °F53%29.76 "Hg
* Reported Jul 9 3:50 PM — Jul 24 12:50 PM, Izmir, Weather by CustomWeather, © 2014

Note: Actual official high and low records may vary slightly from our data, if they occured in-between our weather recording intervals... More about our weather records

Advertising

Izmir weather history for previous 24 hours

 ConditionsComfort  
Time TempWeatherWind HumidityBarometerVisibility
12:50 PM
Jul 24
86 °FPassing clouds.3 mph43%29.74 "HgN/A
12:20 PM86 °FPassing clouds.6 mph43%29.74 "HgN/A
11:50 AM84 °FPassing clouds.5 mph45%29.74 "HgN/A
11:20 AM84 °FPassing clouds.2 mph48%29.77 "HgN/A
10:50 AM81 °FPassing clouds.6 mph54%29.77 "HgN/A
10:20 AM79 °FPassing clouds.5 mph58%29.77 "HgN/A
9:50 AM79 °FPassing clouds.3 mph65%29.77 "HgN/A
9:20 AM77 °FPassing clouds.3 mph65%29.77 "HgN/A
8:20 AM73 °FPassing clouds.5 mph74%29.74 "HgN/A
7:50 AM72 °FSunny.2 mph78%29.77 "Hg10 mi
7:20 AM70 °FSunny.2 mph83%29.74 "Hg10 mi
6:50 AM66 °FClear.2 mph88%29.74 "Hg10 mi
6:20 AM66 °FClear.2 mph88%29.74 "Hg10 mi
5:50 AM66 °FClear.3 mph88%29.74 "Hg10 mi
5:20 AM68 °FClear.2 mph83%29.74 "Hg10 mi
4:50 AM66 °FPassing clouds.3 mph88%29.74 "HgN/A
4:20 AM66 °FClear.3 mph88%29.74 "Hg10 mi
3:50 AM68 °FClear.2 mph83%29.74 "Hg10 mi
3:20 AM70 °FClear.2 mph83%29.74 "Hg10 mi
2:50 AM68 °FClear.2 mph83%29.74 "Hg10 mi
2:20 AM70 °FClear.3 mph83%29.74 "Hg10 mi
1:50 AM70 °FClear.2 mph78%29.77 "Hg10 mi
1:20 AM70 °FPassing clouds.3 mph78%29.77 "HgN/A
12:50 AM72 °FClear.2 mph73%29.77 "Hg10 mi
12:20 AM72 °FClear.6 mph73%29.77 "Hg10 mi
11:50 PM
Jul 23
72 °FClear.6 mph73%29.77 "Hg10 mi
11:20 PM73 °FClear.5 mph74%29.77 "Hg10 mi
10:50 PM73 °FClear.5 mph74%29.77 "Hg10 mi
9:50 PM75 °FClear.7 mph69%29.77 "Hg10 mi
9:20 PM77 °FSunny.5 mph61%29.74 "Hg10 mi
8:50 PM79 °FSunny.7 mph58%29.74 "Hg10 mi
8:20 PM81 °FSunny.8 mph54%29.74 "Hg10 mi
7:50 PM82 °FSunny.9 mph51%29.71 "Hg10 mi
7:20 PM84 °FPassing clouds.8 mph51%29.71 "HgN/A
6:50 PM84 °FSunny.12 mph51%29.71 "Hg10 mi
6:20 PM86 °FSunny.13 mph49%29.71 "Hg10 mi
5:50 PM88 °FPassing clouds.13 mph49%29.71 "HgN/A
5:20 PM88 °FPassing clouds.13 mph40%29.71 "HgN/A
4:50 PM90 °FPassing clouds.12 mph41%29.71 "HgN/A
3:50 PM90 °FPassing clouds.13 mph33%29.71 "HgN/A
3:20 PM90 °FPassing clouds.14 mph29%29.71 "HgN/A
2:50 PM90 °FPassing clouds.12 mph38%29.71 "HgN/A
Weather by CustomWeather, © 2014

See weather overviewHow to use our weather pages